This is the latest recevied weather packets stored in our database for station/object KO6TH-15. If no packets are shown the sender has not sent any weather packets the latest 1 day(s).
| Time | Temp. | Humidity | Pressure | Rain* | Wind** | Luminosity | Snow |
|---|---|---|---|---|---|---|---|
| 1778107910 | 23.89° C | 62% | 0 hPa | 0 mm | - | - | - |
| 1778105390 | 20.56° C | 71% | 0 hPa | 0 mm | - | - | - |
| 1778104130 | 19.44° C | 74% | 0 hPa | 0 mm | - | - | - |
| 1778102300 | 19.44° C | 75% | 0 hPa | 0 mm | - | - | - |
| 1778101700 | 18.33° C | 77% | 0 hPa | 0 mm | - | - | - |
| 1778101070 | 17.78° C | 79% | 0 hPa | 0 mm | - | - | - |
| 1778100440 | 18.33° C | 78% | 0 hPa | 0 mm | - | - | - |
| 1778099840 | 18.33° C | 78% | 0 hPa | 0 mm | - | - | - |
| 1778099210 | 17.78° C | 79% | 0 hPa | 0 mm | - | - | - |
| 1778098580 | 17.78° C | 79% | 0 hPa | 0 mm | - | - | - |
| 1778097950 | 17.78° C | 81% | 0 hPa | 0 mm | - | - | - |
| 1778097320 | 17.22° C | 82% | 0 hPa | 0 mm | - | - | - |
| 1778096690 | 17.22° C | 83% | 0 hPa | 0 mm | - | - | - |
| 1778096090 | 17.22° C | 83% | 0 hPa | 0 mm | - | - | - |
| 1778095460 | 17.22° C | 83% | 0 hPa | 0 mm | - | - | - |
| 1778094860 | 16.67° C | 84% | 0 hPa | 0 mm | - | - | - |
| 1778094230 | 17.22° C | 84% | 0 hPa | 0 mm | - | - | - |
| 1778093600 | 16.67° C | 86% | 0 hPa | 0 mm | - | - | - |
| 1778092970 | 16.67° C | 85% | 0 hPa | 0 mm | - | - | - |
| 1778092340 | 16.67° C | 85% | 0 hPa | 0 mm | - | - | - |
| 1778091110 | 17.78° C | 81% | 0 hPa | 0 mm | - | - | - |
| 1778090510 | 17.78° C | 80% | 0 hPa | 0 mm | - | - | - |
| 1778089880 | 18.33° C | 77% | 0 hPa | 0 mm | - | - | - |
| 1778089250 | 18.33° C | 79% | 0 hPa | 0 mm | - | - | - |
| 1778088650 | 17.22° C | 82% | 0 hPa | 0 mm | - | - | - |
* Rain latest hour (hover to see other rain measurements)
** Current wind speed in m/s (hover to see current wind gust speed)